INTELSAT 19 (IS-19)

Last updated on May 22, 2019, 3:12 a.m. UTC

1 38356U 12030A   19141.81703373 -.00000065  00000-0  00000+0 0  9990
2 38356   0.0108 308.3036 0003168 109.8641 281.1176  1.00270715 25619
UTC
Height (km)
Latitude
Longitude
Inclination
Orbital Period
UTC large
Height (km)
Speed (km/s)
/
Latitude / Longitude
Inclination (degrees)
Orbital Period (minutes)
Azimuth
Elevation
Range (km)
Doppler Factor
iOS Compass Heading
iOS Angle

Next 30 passes for location: Hong Kong

Rise time Rise Azimuth (degrees) Set time Set Azimuth (degrees) Duration Max altitude (degrees)

No matching passes for this satellites